Time,TemperatureF,DewpointF,PressureIn,WindDirection,WindDirectionDegrees,WindSpeedMPH,WindSpeedGustMPH,Humidity,HourlyPrecipIn,Conditions,Clouds,dailyrainin,SoftwareType,DateUTC
2013-03-23 00:03:00,68.0,63.0,29.89,ENE,65,0.0,0.0,85,0.00,,,0.16,,2013-03-23 04:03:00,
2013-03-23 00:13:00,68.0,63.0,29.89,ENE,65,0.0,0.0,85,0.00,,,0.16,,2013-03-23 04:13:00,
2013-03-23 00:23:00,68.0,64.0,29.89,NNE,31,0.0,0.0,86,0.00,,,0.16,,2013-03-23 04:23:00,
2013-03-23 00:32:00,68.0,64.0,29.89,ENE,76,1.0,3.0,87,0.00,,,0.16,,2013-03-23 04:32:00,
2013-03-23 00:43:00,68.0,64.0,29.89,ENE,76,1.0,3.0,87,0.00,,,0.16,,2013-03-23 04:43:00,
2013-03-23 00:53:00,67.0,63.0,29.89,East,99,1.0,2.0,88,0.00,,,0.16,,2013-03-23 04:53:00,
2013-03-23 01:02:00,67.0,64.0,29.89,East,92,1.0,3.0,89,0.00,,,0.16,,2013-03-23 05:02:00,
2013-03-23 01:12:00,67.0,64.0,29.89,East,92,1.0,3.0,89,0.00,,,0.16,,2013-03-23 05:12:00,
2013-03-23 01:22:00,67.0,64.0,29.88,East,97,2.0,3.0,89,0.00,,,0.16,,2013-03-23 05:22:00,
2013-03-23 01:32:00,67.0,64.0,29.88,East,87,2.0,3.0,89,0.00,,,0.16,,2013-03-23 05:32:00,
2013-03-23 01:42:00,67.0,64.0,29.88,East,87,2.0,3.0,89,0.00,,,0.16,,2013-03-23 05:42:00,
2013-03-23 01:53:00,66.0,63.0,29.87,ESE,102,2.0,3.0,90,0.00,,,0.16,,2013-03-23 05:53:00,
2013-03-23 02:02:00,66.0,63.0,29.87,ESE,102,2.0,3.0,90,0.00,,,0.16,,2013-03-23 06:02:00,
2013-03-23 02:12:00,66.0,63.0,29.87,ESE,102,2.0,3.0,90,0.00,,,0.16,,2013-03-23 06:12:00,
2013-03-23 02:22:00,65.0,62.0,29.86,East,89,5.0,7.0,91,0.00,,,0.16,,2013-03-23 06:22:00,
2013-03-23 02:32:00,65.0,62.0,29.86,East,88,3.0,5.0,91,0.00,,,0.16,,2013-03-23 06:32:00,
2013-03-23 02:42:00,65.0,62.0,29.86,East,88,3.0,5.0,91,0.00,,,0.16,,2013-03-23 06:42:00,
2013-03-23 02:52:00,65.0,62.0,29.85,East,80,3.0,5.0,91,0.00,,,0.16,,2013-03-23 06:52:00,
2013-03-23 03:02:00,65.0,63.0,29.85,East,80,4.0,6.0,92,0.00,,,0.16,,2013-03-23 07:02:00,
2013-03-23 03:12:00,65.0,63.0,29.85,East,80,4.0,6.0,92,0.00,,,0.16,,2013-03-23 07:12:00,
2013-03-23 03:22:00,64.0,62.0,29.84,ENE,64,2.0,3.0,92,0.00,,,0.16,,2013-03-23 07:22:00,
2013-03-23 03:32:00,64.0,62.0,29.84,East,85,2.0,5.0,92,0.00,,,0.16,,2013-03-23 07:32:00,
2013-03-23 03:42:00,64.0,62.0,29.84,East,85,2.0,5.0,92,0.00,,,0.16,,2013-03-23 07:42:00,
2013-03-23 03:52:00,64.0,62.0,29.84,ESE,113,2.0,5.0,92,0.00,,,0.16,,2013-03-23 07:52:00,
2013-03-23 04:02:00,64.0,62.0,29.83,East,91,2.0,3.0,92,0.00,,,0.16,,2013-03-23 08:02:00,
2013-03-23 04:13:00,64.0,62.0,29.83,East,91,2.0,3.0,92,0.00,,,0.16,,2013-03-23 08:13:00,
2013-03-23 04:22:00,64.0,62.0,29.83,SE,144,1.0,3.0,92,0.00,,,0.16,,2013-03-23 08:22:00,
2013-03-23 04:32:00,64.0,62.0,29.83,ESE,123,1.0,2.0,93,0.00,,,0.16,,2013-03-23 08:32:00,
2013-03-23 04:42:00,64.0,62.0,29.83,ESE,123,1.0,2.0,93,0.00,,,0.16,,2013-03-23 08:42:00,
2013-03-23 04:53:00,64.0,62.0,29.82,SSE,155,1.0,3.0,93,0.00,,,0.16,,2013-03-23 08:53:00,
2013-03-23 05:02:00,64.0,62.0,29.82,SE,126,1.0,3.0,93,0.00,,,0.16,,2013-03-23 09:02:00,
2013-03-23 05:12:00,64.0,62.0,29.82,SE,126,1.0,3.0,93,0.00,,,0.16,,2013-03-23 09:12:00,
2013-03-23 05:22:00,65.0,63.0,29.81,SE,132,0.0,0.0,93,0.00,,,0.17,,2013-03-23 09:22:00,
2013-03-23 05:33:00,65.0,63.0,29.81,East,86,1.0,3.0,93,0.00,,,0.17,,2013-03-23 09:33:00,
2013-03-23 05:43:00,65.0,63.0,29.81,East,86,1.0,3.0,93,0.00,,,0.17,,2013-03-23 09:43:00,
2013-03-23 05:53:00,65.0,63.0,29.81,ESE,120,0.0,0.0,93,0.00,,,0.17,,2013-03-23 09:53:00,
2013-03-23 06:03:00,65.0,63.0,29.81,SE,128,1.0,2.0,94,0.00,,,0.17,,2013-03-23 10:03:00,
2013-03-23 06:13:00,65.0,63.0,29.81,SE,128,1.0,2.0,94,0.00,,,0.17,,2013-03-23 10:13:00,
2013-03-23 06:23:00,64.0,62.0,29.82,ESE,105,0.0,0.0,94,0.00,,,0.17,,2013-03-23 10:23:00,
2013-03-23 06:34:00,64.0,62.0,29.82,East,100,0.0,0.0,94,0.00,,,0.17,,2013-03-23 10:34:00,
2013-03-23 06:43:00,64.0,62.0,29.82,East,100,0.0,0.0,94,0.00,,,0.17,,2013-03-23 10:43:00,
2013-03-23 06:52:00,64.0,62.0,29.83,East,100,0.0,0.0,94,0.00,,,0.17,,2013-03-23 10:52:00,
2013-03-23 07:03:00,64.0,62.0,29.83,East,100,0.0,0.0,94,0.00,,,0.17,,2013-03-23 11:03:00,
2013-03-23 07:12:00,64.0,62.0,29.83,East,100,0.0,0.0,94,0.00,,,0.17,,2013-03-23 11:12:00,
2013-03-23 07:22:00,65.0,63.0,29.83,ESE,104,0.0,0.0,94,0.00,,,0.17,,2013-03-23 11:22:00,
2013-03-23 07:32:00,64.0,62.0,29.83,ESE,104,0.0,0.0,94,0.00,,,0.17,,2013-03-23 11:32:00,
2013-03-23 07:42:00,64.0,62.0,29.83,ESE,104,0.0,0.0,94,0.00,,,0.17,,2013-03-23 11:42:00,
2013-03-23 07:52:00,64.0,62.0,29.83,ESE,104,0.0,0.0,94,0.00,,,0.17,,2013-03-23 11:52:00,
2013-03-23 08:02:00,64.0,62.0,29.83,SE,128,0.0,0.0,94,0.00,,,0.17,,2013-03-23 12:02:00,
2013-03-23 08:13:00,64.0,62.0,29.83,SE,128,0.0,0.0,94,0.00,,,0.17,,2013-03-23 12:13:00,
2013-03-23 08:22:00,65.0,64.0,29.83,SE,126,0.0,0.0,95,0.00,,,0.17,,2013-03-23 12:22:00,
2013-03-23 08:33:00,65.0,64.0,29.84,SE,134,2.0,3.0,95,0.00,,,0.17,,2013-03-23 12:33:00,
2013-03-23 08:42:00,65.0,64.0,29.84,SE,134,2.0,3.0,95,0.00,,,0.17,,2013-03-23 12:42:00,
2013-03-23 08:53:00,65.0,64.0,29.84,SE,139,0.0,0.0,95,0.00,,,0.17,,2013-03-23 12:53:00,
2013-03-23 09:03:00,66.0,65.0,29.84,SE,130,0.0,0.0,96,0.00,,,0.17,,2013-03-23 13:03:00,
2013-03-23 09:12:00,66.0,65.0,29.84,SE,130,0.0,0.0,96,0.00,,,0.17,,2013-03-23 13:12:00,
2013-03-23 09:23:00,69.0,68.0,29.85,SE,141,0.0,0.0,95,0.00,,,0.17,,2013-03-23 13:23:00,
2013-03-23 09:33:00,69.0,68.0,29.84,SSW,197,1.0,4.0,95,0.00,,,0.17,,2013-03-23 13:33:00,
2013-03-23 09:43:00,69.0,68.0,29.84,SSW,197,1.0,4.0,95,0.00,,,0.17,,2013-03-23 13:43:00,
2013-03-23 09:53:00,70.0,68.0,29.84,SSE,152,0.0,2.0,95,0.00,,,0.17,,2013-03-23 13:53:00,
2013-03-23 10:03:00,71.0,69.0,29.83,SSW,197,1.0,3.0,95,0.00,,,0.17,,2013-03-23 14:03:00,
2013-03-23 10:12:00,71.0,69.0,29.83,SSW,197,1.0,3.0,95,0.00,,,0.17,,2013-03-23 14:12:00,
2013-03-23 10:23:00,72.0,70.0,29.83,ESE,122,2.0,4.0,94,0.00,,,0.17,,2013-03-23 14:23:00,
2013-03-23 10:32:00,74.0,71.0,29.82,SSW,202,4.0,9.0,89,0.00,,,0.17,,2013-03-23 14:32:00,
2013-03-23 10:43:00,74.0,71.0,29.82,SSW,202,4.0,9.0,89,0.00,,,0.17,,2013-03-23 14:43:00,
2013-03-23 10:52:00,75.0,71.0,29.81,SW,230,4.0,7.0,88,0.00,,,0.17,,2013-03-23 14:52:00,
2013-03-23 11:12:00,77.0,72.0,29.79,South,189,2.0,6.0,85,0.00,,,0.17,,2013-03-23 15:12:00,
2013-03-23 11:22:00,77.0,71.0,29.80,WSW,240,5.0,13.0,82,0.00,,,0.17,,2013-03-23 15:22:00,
2013-03-23 11:33:00,77.0,71.0,29.80,WSW,240,5.0,13.0,82,0.00,,,0.17,,2013-03-23 15:33:00,
2013-03-23 11:43:00,77.0,71.0,29.80,WSW,240,5.0,13.0,82,0.00,,,0.17,,2013-03-23 15:43:00,
2013-03-23 11:53:00,79.0,72.0,29.82,SSW,211,5.0,7.0,78,0.00,,,0.17,,2013-03-23 15:53:00,
2013-03-23 12:03:00,81.0,72.0,29.82,WSW,242,2.0,6.0,74,0.00,,,0.17,,2013-03-23 16:03:00,
2013-03-23 12:13:00,81.0,72.0,29.82,WSW,242,2.0,6.0,74,0.00,,,0.17,,2013-03-23 16:13:00,
2013-03-23 12:23:00,81.0,72.0,29.82,West,271,1.0,3.0,74,0.00,,,0.17,,2013-03-23 16:23:00,
2013-03-23 12:33:00,81.0,71.0,29.82,NW,313,3.0,8.0,72,0.00,,,0.17,,2013-03-23 16:33:00,
2013-03-23 12:43:00,81.0,71.0,29.82,NW,313,3.0,8.0,72,0.00,,,0.17,,2013-03-23 16:43:00,
2013-03-23 12:54:00,83.0,70.0,29.81,SSW,198,6.0,8.0,66,0.00,,,0.17,,2013-03-23 16:54:00,
2013-03-23 13:03:00,83.0,71.0,29.81,ESE,122,5.0,8.0,68,0.00,,,0.17,,2013-03-23 17:03:00,
2013-03-23 13:12:00,82.0,70.0,29.81,SW,219,8.0,14.0,67,0.00,,,0.17,,2013-03-23 17:12:00,
2013-03-23 13:23:00,82.0,70.0,29.81,SW,219,8.0,14.0,67,0.00,,,0.17,,2013-03-23 17:23:00,
2013-03-23 13:33:00,82.0,70.0,29.80,South,184,8.0,11.0,67,0.00,,,0.17,,2013-03-23 17:33:00,
2013-03-23 13:42:00,82.0,70.0,29.80,South,184,8.0,11.0,67,0.00,,,0.17,,2013-03-23 17:42:00,
2013-03-23 13:53:00,83.0,69.0,29.80,WSW,240,9.0,18.0,63,0.00,,,0.17,,2013-03-23 17:53:00,
2013-03-23 14:03:00,83.0,69.0,29.79,SSW,210,7.0,12.0,63,0.00,,,0.17,,2013-03-23 18:03:00,
2013-03-23 14:12:00,83.0,69.0,29.79,SSW,210,7.0,12.0,63,0.00,,,0.17,,2013-03-23 18:12:00,
2013-03-23 14:22:00,83.0,69.0,29.79,SSW,210,7.0,12.0,63,0.00,,,0.17,,2013-03-23 18:22:00,
2013-03-23 14:32:00,83.0,69.0,29.79,SSW,210,7.0,12.0,63,0.00,,,0.17,,2013-03-23 18:32:00,
2013-03-23 14:43:00,83.0,69.0,29.79,SSW,210,7.0,12.0,63,0.00,,,0.17,,2013-03-23 18:43:00,
2013-03-23 14:53:00,82.0,69.0,29.78,SSW,213,12.0,16.0,66,0.00,,,0.17,,2013-03-23 18:53:00,
2013-03-23 15:03:00,83.0,69.0,29.78,SW,229,9.0,16.0,63,0.00,,,0.17,,2013-03-23 19:03:00,
2013-03-23 15:13:00,83.0,69.0,29.78,SW,229,9.0,16.0,63,0.00,,,0.17,,2013-03-23 19:13:00,
2013-03-23 15:23:00,82.0,69.0,29.78,WNW,302,5.0,12.0,65,0.00,,,0.17,,2013-03-23 19:23:00,
2013-03-23 15:32:00,83.0,70.0,29.77,SSW,206,5.0,9.0,66,0.00,,,0.17,,2013-03-23 19:32:00,
2013-03-23 15:42:00,83.0,70.0,29.77,SSW,206,5.0,9.0,66,0.00,,,0.17,,2013-03-23 19:42:00,
2013-03-23 15:53:00,83.0,70.0,29.76,SW,215,5.0,8.0,66,0.00,,,0.17,,2013-03-23 19:53:00,
2013-03-23 16:03:00,82.0,70.0,29.76,SW,227,7.0,11.0,67,0.00,,,0.17,,2013-03-23 20:03:00,
2013-03-23 16:13:00,82.0,70.0,29.76,SW,227,7.0,11.0,67,0.00,,,0.17,,2013-03-23 20:13:00,
2013-03-23 16:22:00,81.0,70.0,29.75,SSW,211,8.0,13.0,69,0.00,,,0.17,,2013-03-23 20:22:00,
2013-03-23 16:32:00,81.0,71.0,29.74,South,178,9.0,17.0,71,0.00,,,0.17,,2013-03-23 20:32:00,
2013-03-23 16:42:00,81.0,71.0,29.74,South,178,9.0,17.0,71,0.00,,,0.17,,2013-03-23 20:42:00,
2013-03-23 16:53:00,81.0,71.0,29.74,South,178,9.0,17.0,71,0.00,,,0.17,,2013-03-23 20:53:00,
2013-03-23 17:02:00,81.0,71.0,29.74,South,178,9.0,17.0,71,0.00,,,0.17,,2013-03-23 21:02:00,
2013-03-23 17:12:00,81.0,71.0,29.74,South,178,9.0,17.0,71,0.00,,,0.17,,2013-03-23 21:12:00,
2013-03-23 17:22:00,80.0,70.0,29.72,SSW,211,7.0,11.0,71,0.00,,,0.17,,2013-03-23 21:22:00,
2013-03-23 17:33:00,79.0,69.0,29.72,SSW,198,6.0,11.0,72,0.00,,,0.17,,2013-03-23 21:33:00,
2013-03-23 17:43:00,79.0,69.0,29.72,SSW,198,6.0,11.0,72,0.00,,,0.17,,2013-03-23 21:43:00,
2013-03-23 17:54:00,81.0,70.0,29.72,South,190,7.0,13.0,70,0.00,,,0.17,,2013-03-23 21:54:00,
2013-03-23 18:03:00,79.0,70.0,29.72,SW,235,4.0,7.0,73,0.00,,,0.17,,2013-03-23 22:03:00,
2013-03-23 18:13:00,79.0,70.0,29.72,SW,235,4.0,7.0,73,0.00,,,0.17,,2013-03-23 22:13:00,
2013-03-23 18:23:00,79.0,70.0,29.72,SSW,192,6.0,9.0,73,0.00,,,0.17,,2013-03-23 22:23:00,
2013-03-23 18:33:00,79.0,70.0,29.72,SSW,204,7.0,11.0,75,0.00,,,0.17,,2013-03-23 22:33:00,
2013-03-23 18:42:00,79.0,70.0,29.72,SSW,204,7.0,11.0,75,0.00,,,0.17,,2013-03-23 22:42:00,
2013-03-23 18:52:00,78.0,70.0,29.72,South,183,7.0,13.0,76,0.00,,,0.17,,2013-03-23 22:52:00,
2013-03-23 19:02:00,78.0,70.0,29.72,SSW,208,8.0,14.0,76,0.00,,,0.17,,2013-03-23 23:02:00,
2013-03-23 19:13:00,78.0,70.0,29.72,SSW,208,8.0,14.0,76,0.00,,,0.17,,2013-03-23 23:13:00,
2013-03-23 19:23:00,77.0,69.0,29.73,SSW,206,5.0,11.0,77,0.00,,,0.17,,2013-03-23 23:23:00,
2013-03-23 19:33:00,77.0,70.0,29.72,West,259,1.0,5.0,79,0.00,,,0.17,,2013-03-23 23:33:00,
2013-03-23 19:43:00,77.0,70.0,29.72,West,259,1.0,5.0,79,0.00,,,0.17,,2013-03-23 23:43:00,
2013-03-23 19:53:00,76.0,69.0,29.72,SW,220,6.0,9.0,80,0.00,,,0.17,,2013-03-23 23:53:00,
2013-03-23 20:02:00,75.0,69.0,29.73,SSW,194,2.0,8.0,81,0.00,,,0.17,,2013-03-24 00:02:00,
2013-03-23 20:13:00,75.0,69.0,29.73,SSW,194,2.0,8.0,81,0.00,,,0.17,,2013-03-24 00:13:00,
2013-03-23 20:23:00,75.0,69.0,29.74,SW,227,1.0,4.0,82,0.00,,,0.17,,2013-03-24 00:23:00,
2013-03-23 20:33:00,75.0,70.0,29.75,SSW,209,3.0,5.0,84,0.00,,,0.17,,2013-03-24 00:33:00,
2013-03-23 20:42:00,75.0,70.0,29.75,SSW,209,3.0,5.0,84,0.00,,,0.17,,2013-03-24 00:42:00,
2013-03-23 20:52:00,74.0,69.0,29.75,SSW,205,5.0,7.0,85,0.00,,,0.17,,2013-03-24 00:52:00,
2013-03-23 21:02:00,74.0,69.0,29.75,SSW,204,3.0,5.0,85,0.00,,,0.17,,2013-03-24 01:02:00,
2013-03-23 21:12:00,74.0,69.0,29.75,SSW,204,3.0,5.0,85,0.00,,,0.17,,2013-03-24 01:12:00,
2013-03-23 21:22:00,74.0,69.0,29.75,SSW,204,3.0,5.0,85,0.00,,,0.17,,2013-03-24 01:22:00,
2013-03-23 21:33:00,74.0,70.0,29.76,SSW,200,3.0,6.0,86,0.00,,,0.17,,2013-03-24 01:33:00,
2013-03-23 21:43:00,74.0,70.0,29.76,SSW,200,3.0,6.0,86,0.00,,,0.17,,2013-03-24 01:43:00,
2013-03-23 21:53:00,73.0,69.0,29.76,SSW,213,1.0,3.0,86,0.00,,,0.17,,2013-03-24 01:53:00,
2013-03-23 22:03:00,73.0,69.0,29.76,ESE,107,1.0,5.0,87,0.00,,,0.17,,2013-03-24 02:03:00,
2013-03-23 22:12:00,73.0,69.0,29.76,ESE,107,1.0,5.0,87,0.00,,,0.17,,2013-03-24 02:12:00,
2013-03-23 22:22:00,73.0,69.0,29.76,ESE,107,1.0,5.0,87,0.00,,,0.17,,2013-03-24 02:22:00,
2013-03-23 22:32:00,73.0,69.0,29.77,South,173,0.0,1.0,88,0.00,,,0.16,,2013-03-24 02:32:00,
2013-03-23 22:42:00,73.0,69.0,29.77,South,173,0.0,1.0,88,0.00,,,0.16,,2013-03-24 02:42:00,
2013-03-23 22:52:00,72.0,68.0,29.77,SSW,201,0.0,0.0,88,0.00,,,0.10,,2013-03-24 02:52:00,
2013-03-23 23:03:00,72.0,68.0,29.77,ESE,118,0.0,0.0,88,0.00,,,0.05,,2013-03-24 03:03:00,
2013-03-23 23:12:00,72.0,68.0,29.77,ESE,118,0.0,0.0,88,0.00,,,0.05,,2013-03-24 03:12:00,
2013-03-23 23:23:00,72.0,69.0,29.77,SE,141,0.0,1.0,89,0.00,,,0.03,,2013-03-24 03:23:00,
2013-03-23 23:33:00,72.0,69.0,29.77,SE,141,0.0,1.0,89,0.00,,,0.03,,2013-03-24 03:33:00,
2013-03-23 23:42:00,72.0,69.0,29.77,SE,141,0.0,1.0,89,0.00,,,0.03,,2013-03-24 03:42:00,
2013-03-23 23:53:00,72.0,69.0,29.76,SSW,194,0.0,1.0,89,0.00,,,0.01,,2013-03-24 03:53:00,